Hourly Data Report for August 12, 2021

ALGONQUIN PARK EAST GATE
ONTARIO
Current Station Operator: ECCC - MSC

45°32'00.000" N
78°16'00.000" W
397.00 m
6080192
71581
TNK

Download Data

Hourly Data (August 2021)
Hourly Data Report for August 12, 2021
TIME
LST
Temp Definition
°C
Dew Point Definition
°C
Rel Hum Definition
%
Precip. Amount Definition
mm

Wind Dir Definition
10's deg

Wind Spd Definition
km/h
Visibility Definition
km
Stn Press Definition
kPa
Hmdx Definition


Wind Chill Definition


Weather Definition


00:00 19.5 19.1 98 0.0 20 2   96.30     LegendNANA
01:00 19.3 19.0 98 0.0 0 1   96.33     LegendNANA
02:00 19.6 19.2 98 0.0   0   96.24     LegendNANA
03:00 19.9 19.3 97 0.0 21 2   96.23     LegendNANA
04:00 19.5 19.0 97 0.0 26 2   96.23     LegendNANA
05:00 19.0 18.5 97 0.0   0   96.23     LegendNANA
06:00 19.7 19.2 97 0.0 21 2   96.26     LegendNANA
07:00 20.6 20.0 96 0.0 25 3   96.29 28   LegendNANA
08:00 20.9 20.2 96 0.0 22 4   96.30 29   LegendNANA
09:00 21.5 20.4 94 0.0 24 6   96.31 29   LegendNANA
10:00 21.7 20.1 90 0.0 25 6   96.37 29   LegendNANA
11:00 22.1 20.7 92 0.0 24 4   96.43 30   LegendNANA
12:00 21.7 20.6 93 0.1 23 4   96.49 30   LegendNANA
13:00 23.6 21.1 86 0.7 24 8   96.47 32   LegendNANA
14:00 24.6 19.3 72 0.0 27 6   96.45 32   LegendNANA
15:00 26.5 19.0 63 0.0 27 7   96.45 33   LegendNANA
16:00 25.3 18.6 66 0.0 25 7   96.52 32   LegendNANA
17:00 25.7 17.2 59 0.0 25 7   96.56 31   LegendNANA
18:00 23.9 17.0 65 0.0 26 5   96.55 29   LegendNANA
19:00 20.8 18.3 85 0.0 32 1   96.56 27   LegendNANA
20:00 18.7 17.2 91 0.0   0   96.58     LegendNANA
21:00 17.6 16.8 95 0.0   0   96.62     LegendNANA
22:00 16.9 16.3 96 0.0   0   96.63     LegendNANA
23:00 16.2 15.8 97 0.0   0   96.66     LegendNANA

Notes on Data Quality.

Legend

  • E = Estimated
  • M = Missing
  • NA = Not Available*
  • [empty] = Indicates an unobserved value
Date modified: